Regional Weather Roundup
Issued by NWS Newport/Morehead, NC

Current Version | Previous Version | Graphics & Text | Print | Product List | Glossary Off
Versions: 1 2 3 4 5 6 7 8 9 10 11 12 13 14 15 16 17 18 19 20 21 22 23 24 25 26 27 28 29 30 31 32 33 34 35 36 37 38 39 40 41 42 43 44 45 46 47 48 49 50

000
ASUS42 KMHX 150513
RWRMHX
WEATHER ROUNDUP FOR EASTERN NORTH CAROLINA
NATIONAL WEATHER SERVICE NEWPORT/MOREHEAD CITY NC
1200 AM EST FRI DEC 15 2017

NOTE: "FAIR" INDICATES FEW OR NO CLOUDS BELOW 12,000 FEET
WITH NO SIGNIFICANT WEATHER AND/OR OBSTRUCTIONS TO VISIBILITY

NCZ015>017-031-032-045>047-102-103-150600-
NORTH COAST

CITY           SKY/WX    TMP DP  RH WIND       PRES   REMARKS
EDENTON        CLEAR     39  31  74 NE7       30.06S
ELIZABETH CITY CLEAR     39  33  79 N9        30.06F
KITTY HAWK     CLEAR     46  36  68 NE7       30.03F
MANTEO         CLEAR     45  37  75 NE9       30.05S

$$

NCZ045>047-081-094-103-104-150600-
CENTRAL COAST

CITY           SKY/WX    TMP DP  RH WIND       PRES   REMARKS
FRISCO         CLEAR     46  41  82 NE6       30.01F

$$

NCZ095-097-098-100-101-150600-
SOUTHERN COAST

CITY           SKY/WX    TMP DP  RH WIND       PRES   REMARKS
BEAUFORT       CLOUDY    43  40  89 NE6       30.01S
CEDAR ISLAND   NOT AVBL
JACKSONVILLE   CLOUDY    37  34  89 CALM      30.00R
PINEY ISLAND     N/A    N/A N/A N/A NE8       30.00F
WILMINGTON     CLOUDY    40  37  89 CALM      30.00S


$$

NCZ011>013-027>030-043-044-078>080-089-090>093-098-150600-
COASTAL PLAIN

CITY           SKY/WX    TMP DP  RH WIND       PRES   REMARKS
AHOSKIE        CLEAR     35  28  76 N3        30.07R
CLINTON        CLOUDY    34  33  94 CALM      30.01S
ELIZABETHTOWN  NOT AVBL
GOLDSBORO      CLEAR     36  31  80 E7        30.00S
GREENVILLE     CLEAR     37  32  81 NE5       30.05S
HAVELOCK       CLOUDY    42  32  67 NE7       30.02S
KENANSVILLE    CLOUDY    34  30  86 CALM      30.00S
KINSTON        NOT AVBL
NEW BERN       CLEAR     38  35  89 NE5       30.02F
RICHLANDS      CLOUDY    33  32  96 NE7       30.01R
ROCKY MOUNT    CLEAR     37  30  75 NE7       30.03F
WASHINGTON     CLEAR     37  32  84 NE7       30.03F
WHITEVILLE     PTCLDY    38  36  90 CALM      29.99S

$$

AMZ130-135-150-152-154-156-158-170-250-252-270-ANZ085-086-088-633-658-670-150600-
MARINE OBSERVATIONS

STATION/POSITION TIME  TEMP    WIND        PRES    WAVE   SWELL
                       AIR SEA DIR/SP/G            HT/PER HT/PER
                 (UTC) (F)     (DEG/KT/KT) (MB)    (FT/S) (FT/S)
CHESAPEAKE LIGHT NOT AVBL
64 E VA BEACH    0450   47 60   40/ 10/ 14 1018.5    5/ 7   5/ 7
DUCK             0442   47 53   40/ 14/ 16 1017.1
2 E DUCK         0500      55                N/A     4/ 5
OREGON INLET     0442   49 43   30/  9/ 11 1016.8
13E OREGON INLT  0448      62                N/A     4/ 8   3/ 8
HATTERAS CG      0442   47 52   50/  5/  7 1015.9
DIAMOND BUOY     0500   58 74  360/  6/ 10 1015.8
CAPE LOOKOUT     0500           10/  8/  9 1016.0
BEAUFORT LAB     0442   44 50   40/  5/  9 1015.8
30 SE NEW RVR IN 0408   58 64  330/  2/  6 1015.8
30 SE NEW RVR IN 0500      64                N/A     4/ 7
27 SE WRIGHTSVLE 0408   58 64  290/  6/ 10 1015.8
5 SE WRIGHTSVLE  0408   53 56  290/  6/  8 1015.4
225 S CAPE HAT   0450   71 74  250/ 17/ 23 1015.8    8/ 8   3/15
41 SE CHARLESTON 0500   64 71  250/ 17/ 21 1015.8

$$




USA.gov is the U.S. government's official web portal to all federal, state and local government web resources and services.